sat.trackr.live / text

‹ back to catalog

STARLINK-32639

NORAD 62153 · 2024-224Q

PAYLOAD ACTIVE UNKNOWN

§ Identity

Operator
Country
US
Launch date
2024-11-30
Launch site
AFETR
Launch vehicle
Mass (kg)
RCS (m²)

Purposes: comms

External: N2YO · Heavens-Above · Gunter

§ Orbital elements

Epoch: 2026-09-21T00:54:18.178560Z

Period
94.27 min
Inclination
43.0018°
Eccentricity
0.0001093
Mean motion
15.27606664 rev/d
Perigee alt
482.2 km
Apogee alt
483.7 km
Semi-major
6,861.1 km
B*
4.0358e-4
RAAN
135.0810°
Arg perigee
257.6259°
Mean anomaly
102.4471°
Rev number
10,219

§ Raw data

STARLINK-326391 62153U 24224Q   26264.03771040  .00010869  00000+0  40358-3 0  99992 62153  43.0018 135.0810 0001093 257.6259 102.4471 15.27606664102197

JSON: /api/v1/satellites/62153 · /tle

For live sub-satellite position, see the globe view (requires WebGL).

§ Visibility from observer

Set your observer location to see the next 7 days of passes ≥ 10°. The values pass through the URL so the page stays shareable.

No JS? Fill the form by hand. The geolocation button needs JavaScript.